GW3677 Weather Reports


time (UTC)temp
C
wind
direction
speed
KPH
gust
KPH
rain 1hr
cm
rain 24hr
cm
rain mn
cm
humidity
%
barometer
mb
20260510171032 30 176 3.2 9.7 0.00 0.00 0.00 69 1016.1
20260510170523 30 273 8.0 11.3 0.00 0.00 0.00 72 1016.1
20260510170020 30 272 11.3 16.1 0.00 0.00 0.00 72 1016.1
20260510165515 30 262 12.9 16.1 0.00 0.00 0.00 70 1016.1
20260510165012 30 269 4.8 22.5 0.00 0.00 0.00 72 1016.4
20260510164509 30 245 9.7 12.9 0.00 0.00 0.00 71 1016.2
20260510164005 29 258 11.3 14.5 0.00 0.00 0.00 73 1016.3
20260510163501 30 285 11.3 16.1 0.00 0.00 0.00 71 1016.2
20260510162955 31 284 4.8 16.1 0.00 0.00 0.00 71 1016.4
20260510162447 31 306 11.3 14.5 0.00 0.00 0.00 69 1016.3
20260510161943 31 185 6.4 9.7 0.00 0.00 0.00 68 1016.1
20260510161438 31 240 11.3 16.1 0.00 0.00 0.00 68 1016.3
20260510160936 31 250 9.7 16.1 0.00 0.00 0.00 68 1016.4
20260510160432 31 202 4.8 12.9 0.00 0.00 0.00 68 1016.4
20260510155925 31 247 9.7 16.1 0.00 0.00 0.00 70 1016.2
20260510155423 31 89 1.6 4.8 0.00 0.00 0.00 71 1016.2
20260510154919 30 243 6.4 11.3 0.00 0.00 0.00 72 1016.4
20260510154415 30 262 4.8 11.3 0.00 0.00 0.00 73 1016.4
20260510153909 31 281 11.3 12.9 0.00 0.00 0.00 70 1016.3
20260510153406 30 165 3.2 11.3 0.00 0.00 0.00 73 1016.3
20260510152902 30 131 4.8 11.3 0.00 0.00 0.00 74 1016.1
20260510152400 30 227 6.4 12.9 0.00 0.00 0.00 73 1016.1
20260510151855 30 177 4.8 11.3 0.00 0.00 0.00 74 1016.2
20260510151354 28 154 4.8 4.8 0.00 0.00 0.00 79 1016.1
20260510150850 27 256 6.4 12.9 0.00 0.00 0.00 83 1016.2
20260510150345 27 190 3.2 4.8 0.00 0.00 0.00 82 1016.4
20260510145841 27 261 4.8 8.0 0.00 0.00 0.00 81 1016.1
20260510145338 28 286 4.8 11.3 0.00 0.00 0.00 79 1016.2
20260510144835 28 203 3.2 4.8 0.00 0.00 0.00 78 1015.9
20260510144331 29 262 4.8 8.0 0.00 0.00 0.00 78 1016.1
20260510143831 29 172 3.2 4.8 0.00 0.00 0.00 78 1016.0
20260510143327 28 125 1.6 4.8 0.00 0.00 0.00 78 1016.2
20260510142825 28 139 0.0 4.8 0.00 0.00 0.00 80 1016.2
20260510142321 28 263 11.3 12.9 0.00 0.00 0.00 80 1015.8
20260510141818 28 186 3.2 9.7 0.00 0.00 0.00 81 1015.9
20260510141316 28 129 4.8 9.7 0.00 0.00 0.00 79 1016.0
20260510140813 28 123 4.8 4.8 0.00 0.00 0.00 79 1015.7
20260510140308 28 123 6.4 8.0 0.00 0.00 0.00 82 1015.7
20260510135802 28 142 4.8 9.7 0.00 0.00 0.00 81 1015.7
20260510135258 28 193 0.0 4.8 0.00 0.00 0.00 82 1015.8
20260510134756 27 228 3.2 8.0 0.00 0.00 0.00 83 1015.9
20260510134253 27 150 0.0 4.8 0.00 0.00 0.00 85 1015.8
20260510133748 26 111 4.8 8.0 0.00 0.00 0.00 85 1015.8
20260510133244 26 209 1.6 8.0 0.00 0.00 0.00 85 1015.6
20260510132740 26 193 3.2 9.7 0.00 0.00 0.00 85 1015.6
20260510132238 27 130 3.2 9.7 0.00 0.00 0.00 84 1015.5
20260510131735 26 146 4.8 8.0 0.00 0.00 0.00 85 1015.7
20260510131233 26 129 1.6 8.0 0.00 0.00 0.00 84 1015.6
20260510130729 26 150 3.2 3.2 0.00 0.00 0.00 85 1015.5
20260510130226 26 138 0.0 1.6 0.00 0.00 0.00 85 1015.6
20260510125722 26 164 1.6 4.8 0.00 0.00 0.00 85 1015.6
20260510125219 26 131 1.6 4.8 0.00 0.00 0.00 87 1015.6
20260510124715 25 207 4.8 9.7 0.00 0.00 0.00 89 1015.4
20260510124213 24 133 3.2 4.8 0.00 0.00 0.00 91 1015.5
20260510123708 23 133 1.6 3.2 0.00 0.00 0.00 95 1015.5
20260510123204 22 131 3.2 8.0 0.00 0.00 0.00 99 1015.5
20260510122700 22 139 1.6 1.6 0.00 0.00 0.00 99 1015.4
20260510122156 22 142 0.0 0.0 0.00 0.00 0.00 99 1015.4
20260510121653 21 141 0.0 0.0 0.00 0.00 0.00 99 1015.3
20260510121150 21 140 0.0 0.0 0.00 0.00 0.00 99 1015.1
20260510120648 21 140 0.0 0.0 0.00 0.00 0.00 99 1015.1
20260510120143 20 140 0.0 0.0 0.00 0.00 0.00 99 1015.1
20260510115639 20 140 0.0 0.0 0.00 0.00 0.00 99 1015.3
20260510115138 20 140 0.0 0.0 0.00 0.00 0.00 99 1015.0
20260510114633 20 140 0.0 0.0 0.00 0.00 0.00 99 1014.7
20260510114130 20 140 0.0 0.0 0.00 0.00 0.00 99 1014.8
20260510113625 20 140 0.0 0.0 0.00 0.00 0.00 99 1014.6
20260510113122 20 140 0.0 0.0 0.00 0.00 0.00 99 1014.7
20260510112619 20 140 0.0 0.0 0.00 0.00 0.00 99 1014.7
20260510112115 20 140 0.0 0.0 0.00 0.00 0.00 99 1014.5
20260510111612 19 140 0.0 0.0 0.00 0.00 0.00 99 1014.4
20260510111108 19 140 0.0 0.0 0.00 0.00 0.00 99 1014.3
20260510110604 19 140 0.0 0.0 0.00 0.00 0.00 99 1014.1
20260510110101 19 140 0.0 0.0 0.00 0.00 0.00 99 1014.0
20260510105556 19 140 0.0 0.0 0.00 0.00 0.00 99 1014.1
20260510105051 18 140 0.0 0.0 0.00 0.00 0.00 99 1013.9
20260510104548 18 140 0.0 0.0 0.00 0.00 0.00 99 1013.9
20260510104044 18 140 0.0 0.0 0.00 0.00 0.00 99 1013.8
20260510103542 18 140 0.0 0.0 0.00 0.00 0.00 99 1013.9
20260510103038 18 140 0.0 0.0 0.00 0.00 0.00 99 1013.8
20260510102533 18 140 0.0 0.0 0.00 0.00 0.00 99 1013.6
20260510102030 18 140 0.0 0.0 0.00 0.00 0.00 99 1013.6
20260510101528 18 140 0.0 0.0 0.00 0.00 0.00 99 1013.7
20260510101026 18 140 0.0 0.0 0.00 0.00 0.00 99 1013.6
20260510100522 18 140 0.0 0.0 0.00 0.00 0.00 99 1013.6
20260510100019 19 140 0.0 0.0 0.00 0.00 0.00 99 1013.6
20260510095515 19 140 0.0 0.0 0.00 0.00 0.00 99 1013.4
20260510095014 19 140 0.0 0.0 0.00 0.00 0.00 99 1013.5
20260510094508 19 140 0.0 0.0 0.00 0.00 0.00 99 1013.6
20260510094004 19 140 0.0 0.0 0.00 0.00 0.00 99 1013.3
20260510093500 20 140 0.0 0.0 0.00 0.00 0.00 99 1013.3
20260510092957 20 140 0.0 0.0 0.00 0.00 0.00 99 1013.4
20260510092454 20 140 0.0 0.0 0.00 0.00 0.00 99 1013.2
20260510091954 20 139 0.0 0.0 0.00 0.00 0.00 99 1013.0
20260510091451 20 140 0.0 0.0 0.00 0.00 0.00 99 1013.1
20260510090947 20 140 0.0 0.0 0.00 0.00 0.00 99 1013.0
20260510090445 20 140 0.0 0.0 0.00 0.00 0.00 99 1012.8
20260510085939 20 140 0.0 0.0 0.00 0.00 0.00 99 1012.8
20260510085435 20 140 0.0 0.0 0.00 0.00 0.00 99 1012.8
20260510084931 20 140 0.0 0.0 0.00 0.00 0.00 99 1012.7
20260510084428 20 140 0.0 0.0 0.00 0.00 0.00 99 1012.6
20260510083924 20 140 0.0 0.0 0.00 0.00 0.00 99 1012.7
20260510083421 20 140 0.0 0.0 0.00 0.00 0.00 99 1012.8
20260510082911 20 140 0.0 0.0 0.00 0.00 0.00 99 1012.6
20260510082409 20 140 0.0 0.0 0.00 0.00 0.00 99 1012.6
20260510081907 20 140 0.0 0.0 0.00 0.00 0.00 99 1012.6
20260510081403 21 140 0.0 0.0 0.00 0.00 0.00 98 1012.6
20260510080901 20 140 0.0 0.0 0.00 0.00 0.00 98 1012.6
20260510080354 20 140 0.0 0.0 0.00 0.00 0.00 98 1012.5
20260510075852 20 140 0.0 0.0 0.00 0.00 0.00 98 1012.5
20260510075350 21 140 0.0 0.0 0.00 0.00 0.00 98 1012.4
20260510074845 21 140 0.0 0.0 0.00 0.00 0.00 97 1012.4
20260510074343 21 139 0.0 0.0 0.00 0.00 0.00 97 1012.4
20260510073839 21 139 0.0 0.0 0.00 0.00 0.00 96 1012.6
20260510073335 21 140 0.0 0.0 0.00 0.00 0.00 96 1012.6
20260510072831 21 139 0.0 0.0 0.00 0.00 0.00 95 1012.5
20260510072328 21 139 0.0 0.0 0.00 0.00 0.00 94 1012.5
20260510071819 22 139 0.0 3.2 0.00 0.00 0.00 94 1012.6
20260510071315 22 141 1.6 3.2 0.00 0.00 0.00 94 1012.6
20260510070814 22 155 1.6 3.2 0.00 0.00 0.00 94 1012.6
20260510070311 22 138 1.6 3.2 0.00 0.00 0.00 94 1012.4
20260510065810 22 124 1.6 8.0 0.00 0.00 0.00 94 1012.5
20260510065307 22 147 3.2 3.2 0.00 0.00 0.00 94 1012.7
20260510064804 22 135 0.0 3.2 0.00 0.00 0.00 94 1012.6
20260510064302 22 148 1.6 1.6 0.00 0.00 0.00 93 1012.5
20260510063757 22 146 1.6 3.2 0.00 0.00 0.00 93 1012.7
20260510063254 22 142 1.6 3.2 0.00 0.00 0.00 93 1012.9
20260510062750 22 117 0.0 1.6 0.00 0.00 0.00 92 1012.8
20260510062241 22 84 1.6 3.2 0.00 0.00 0.00 92 1012.8
20260510061736 22 140 1.6 3.2 0.00 0.00 0.00 92 1012.8
20260510061234 22 145 3.2 4.8 0.00 0.00 0.00 92 1012.8
20260510060730 22 141 1.6 3.2 0.00 0.00 0.00 92 1013.0
20260510060227 22 155 4.8 4.8 0.00 0.00 0.00 92 1013.0
20260510055723 22 113 3.2 4.8 0.00 0.00 0.00 92 1013.0
20260510055221 22 133 1.6 3.2 0.00 0.00 0.00 92 1013.0
20260510054716 22 118 3.2 8.0 0.00 0.00 0.00 93 1013.1
20260510054212 21 168 3.2 11.3 0.00 0.00 0.00 93 1013.0
20260510053712 21 112 4.8 8.0 0.00 0.00 0.00 93 1013.2
20260510053209 21 115 6.4 11.3 0.00 0.00 0.00 94 1013.2
20260510052704 21 140 3.2 8.0 0.00 0.00 0.00 94 1013.3
20260510052200 21 113 4.8 4.8 0.00 0.00 0.00 95 1013.4
20260510051656 21 129 1.6 4.8 0.00 0.00 0.00 95 1013.7
20260510051153 21 126 3.2 3.2 0.00 0.00 0.00 96 1013.8
20260510050650 21 132 0.0 1.6 0.00 0.00 0.00 96 1013.8
20260510050148 21 139 0.0 1.6 0.00 0.00 0.00 96 1013.9
20260510045644 21 134 0.0 0.0 0.00 0.00 0.00 96 1013.9
20260510045141 21 133 0.0 0.0 0.00 0.00 0.00 96 1013.8
20260510044637 21 133 0.0 0.0 0.00 0.00 0.00 96 1014.1
20260510044135 21 133 1.6 3.2 0.00 0.00 0.00 96 1014.1
20260510043630 21 124 1.6 1.6 0.00 0.00 0.00 96 1014.1
20260510043127 20 167 0.0 1.6 0.00 0.00 0.00 97 1014.3
20260510042625 20 167 0.0 1.6 0.00 0.00 0.00 97 1014.3
20260510042120 20 26 0.0 0.0 0.00 0.00 0.00 97 1014.3
20260510041618 20 26 0.0 0.0 0.00 0.00 0.00 97 1014.4
20260510041114 20 26 0.0 0.0 0.00 0.00 0.00 97 1014.3
20260510040611 20 26 0.0 0.0 0.00 0.00 0.00 97 1014.5
20260510040108 20 26 0.0 0.0 0.00 0.00 0.00 97 1014.6
20260510035603 20 26 0.0 0.0 0.00 0.00 0.00 98 1014.6
20260510035058 20 26 0.0 0.0 0.00 0.00 0.00 98 1014.6
20260510034556 20 26 0.0 0.0 0.00 0.00 0.00 98 1014.8
20260510034053 20 26 0.0 0.0 0.00 0.00 0.00 98 1014.8
20260510033549 20 26 0.0 0.0 0.00 0.00 0.00 98 1014.8
20260510033047 20 26 0.0 0.0 0.00 0.00 0.00 98 1014.9
20260510032543 20 26 0.0 0.0 0.00 0.00 0.00 98 1014.7
20260510032038 20 26 0.0 0.0 0.00 0.00 0.00 98 1014.7
20260510031528 20 26 0.0 0.0 0.00 0.00 0.00 98 1014.7
20260510031024 20 26 0.0 0.0 0.00 0.00 0.00 97 1014.5
20260510030520 20 26 0.0 0.0 0.00 0.00 0.00 97 1014.5
20260510030017 20 26 0.0 0.0 0.00 0.00 0.00 97 1014.5
20260510025514 20 26 0.0 0.0 0.00 0.00 0.00 97 1014.7
20260510025011 20 26 0.0 0.0 0.00 0.00 0.00 97 1014.6
20260510024502 20 26 0.0 0.0 0.00 0.00 0.00 97 1014.3
20260510023958 20 26 0.0 0.0 0.00 0.00 0.00 96 1014.3
20260510023454 21 26 0.0 0.0 0.00 0.00 0.00 96 1014.3
20260510022951 21 26 0.0 0.0 0.00 0.00 0.00 96 1014.4
20260510022450 21 26 0.0 0.0 0.00 0.00 0.00 96 1014.5
20260510021949 21 25 0.0 0.0 0.00 0.00 0.00 96 1014.2
20260510021448 21 31 0.0 0.0 0.00 0.00 0.00 96 1014.0
20260510020944 21 31 0.0 0.0 0.00 0.00 0.00 96 1014.0
20260510020439 21 31 0.0 0.0 0.00 0.00 0.00 95 1014.0
20260510015935 21 31 0.0 0.0 0.00 0.00 0.00 95 1014.1
20260510015431 21 31 0.0 0.0 0.00 0.00 0.00 95 1013.8
20260510014926 21 34 0.0 0.0 0.00 0.00 0.00 95 1013.8
20260510014424 21 35 0.0 0.0 0.00 0.00 0.00 95 1013.5
20260510013920 21 35 0.0 1.6 0.00 0.00 0.00 95 1013.3
20260510013415 21 35 1.6 1.6 0.00 0.00 0.00 95 1013.3
20260510012911 21 22 0.0 0.0 0.00 0.00 0.00 95 1013.4
20260510012406 21 22 0.0 1.6 0.00 0.00 0.00 95 1013.3
20260510011901 21 13 0.0 0.0 0.00 0.00 0.00 95 1013.5
20260510011356 21 13 0.0 0.0 0.00 0.00 0.00 94 1013.4
20260510010852 21 13 0.0 0.0 0.00 0.00 0.00 94 1013.5
20260510010350 21 13 0.0 0.0 0.00 0.00 0.00 94 1013.2
20260510005846 21 13 0.0 0.0 0.00 0.00 0.00 94 1013.2
20260510005343 21 13 0.0 0.0 0.00 0.00 0.00 94 1013.1
20260510004840 21 13 0.0 1.6 0.00 0.00 0.00 94 1013.2
20260510004338 21 12 0.0 0.0 0.00 0.00 0.00 94 1013.0
20260510003836 21 12 0.0 0.0 0.00 0.00 0.00 94 1013.2
20260510003332 21 40 0.0 1.6 0.00 0.00 0.00 94 1013.1
20260510002831 21 58 1.6 3.2 0.00 0.00 0.00 94 1012.6
20260510002328 21 60 1.6 1.6 0.00 0.00 0.00 94 1012.6
20260510001825 21 73 1.6 1.6 0.00 0.00 0.00 94 1012.7
20260510001323 21 73 1.6 3.2 0.00 0.00 0.00 94 1012.9
20260510000819 21 35 1.6 3.2 0.00 0.00 0.00 93 1012.9
20260510000318 21 17 1.6 1.6 0.00 0.00 0.00 93 1012.9
20260509235813 21 59 1.6 1.6 0.00 0.00 0.00 93 1012.9
20260509235310 21 36 1.6 3.2 0.00 0.00 0.00 93 1012.9
20260509234806 21 10 4.8 9.7 0.00 0.00 0.00 93 1013.1
20260509234302 21 52 3.2 9.7 0.00 0.00 0.00 93 1013.2
20260509233801 21 50 6.4 8.0 0.00 0.00 0.00 93 1012.9
20260509233258 21 59 3.2 3.2 0.00 0.00 0.00 93 1012.9
20260509232754 21 346 1.6 3.2 0.00 0.00 0.00 93 1012.7
20260509232251 21 55 3.2 4.8 0.00 0.00 0.00 93 1012.6
20260509231747 21 321 8.0 9.7 0.00 0.00 0.00 93 1012.7
20260509231245 21 11 3.2 11.3 0.00 0.00 0.00 93 1012.9
20260509230742 22 23 4.8 8.0 0.00 0.00 0.00 93 1012.8
20260509230239 22 14 4.8 11.3 0.00 0.00 0.00 93 1012.8
20260509225734 22 18 3.2 4.8 0.00 0.00 0.00 92 1012.6
20260509225231 22 348 6.4 9.7 0.00 0.00 0.00 91 1013.0
20260509224726 22 27 4.8 4.8 0.00 0.00 0.00 90 1013.1
20260509224224 22 301 4.8 11.3 0.00 0.00 0.00 90 1013.2
20260509223720 22 236 4.8 12.9 0.00 0.00 0.00 89 1013.2
20260509223217 22 356 8.0 14.5 0.00 0.00 0.00 88 1013.1
20260509222714 23 319 4.8 8.0 0.00 0.00 0.00 87 1013.1
20260509222209 23 317 4.8 9.7 0.00 0.00 0.00 86 1013.1
20260509221705 23 5 11.3 14.5 0.00 0.00 0.00 85 1013.0
20260509221202 23 307 6.4 8.0 0.00 0.00 0.00 85 1013.2
20260509220658 23 298 8.0 9.7 0.00 0.00 0.00 85 1013.3
20260509220154 24 7 8.0 12.9 0.00 0.00 0.00 84 1013.1
20260509215650 24 37 3.2 9.7 0.00 0.00 0.00 85 1012.9
20260509215147 24 28 6.4 11.3 0.00 0.00 0.00 84 1013.0
20260509214644 25 2 6.4 14.5 0.00 0.00 0.00 83 1012.9
20260509214141 26 322 3.2 11.3 0.00 0.00 0.00 82 1012.7
20260509213638 27 263 4.8 4.8 0.00 0.00 0.00 80 1012.6
20260509213133 27 253 4.8 8.0 0.00 0.00 0.00 80 1012.3
20260509212631 27 304 3.2 8.0 0.00 0.00 0.00 80 1012.4
20260509212127 27 256 4.8 9.7 0.00 0.00 0.00 79 1012.5
20260509211624 27 324 4.8 4.8 0.00 0.00 0.00 79 1012.2
20260509211120 27 237 3.2 9.7 0.00 0.00 0.00 79 1012.0
20260509210617 27 266 4.8 8.0 0.00 0.00 0.00 77 1011.9
20260509210114 27 251 4.8 8.0 0.00 0.00 0.00 77 1012.0
20260509205608 27 307 6.4 8.0 0.00 0.00 0.00 77 1011.9
20260509205103 27 243 8.0 12.9 0.00 0.00 0.00 77 1011.6
20260509204600 27 242 1.6 8.0 0.00 0.00 0.00 79 1011.7
20260509204057 27 286 6.4 11.3 0.00 0.00 0.00 78 1011.8
20260509203552 27 256 4.8 9.7 0.00 0.00 0.00 79 1011.9
20260509203050 27 259 6.4 11.3 0.00 0.00 0.00 79 1011.8
20260509202545 27 293 6.4 11.3 0.00 0.00 0.00 80 1012.1
20260509202041 27 297 4.8 8.0 0.00 0.00 0.00 81 1012.0
20260509201536 27 251 4.8 11.3 0.00 0.00 0.00 81 1012.0
20260509201034 27 342 6.4 9.7 0.00 0.00 0.00 80 1012.1
20260509200533 27 290 8.0 9.7 0.00 0.00 0.00 80 1012.0
20260509200030 27 303 4.8 12.9 0.00 0.00 0.00 81 1012.1
20260509195525 27 287 8.0 14.5 0.00 0.00 0.00 81 1012.3
20260509195019 27 324 4.8 8.0 0.00 0.00 0.00 82 1012.0
20260509194515 27 233 4.8 4.8 0.00 0.00 0.00 83 1012.2
20260509194012 27 240 4.8 8.0 0.00 0.00 0.00 83 1012.1
20260509193507 27 295 4.8 4.8 0.00 0.00 0.00 83 1012.2
20260509193004 27 189 6.4 12.9 0.00 0.00 0.00 83 1012.2
20260509192500 26 211 3.2 8.0 0.00 0.00 0.00 83 1012.2
20260509191955 26 243 4.8 9.7 0.00 0.00 0.00 83 1012.3
20260509191450 27 237 8.0 11.3 0.00 0.00 0.00 82 1012.3
20260509190946 27 260 1.6 9.7 0.00 0.00 0.00 82 1012.3
20260509190443 27 259 8.0 11.3 0.00 0.00 0.00 82 1012.5
20260509185941 27 319 3.2 8.0 0.00 0.00 0.00 83 1012.4
20260509185438 27 261 9.7 12.9 0.00 0.00 0.00 82 1012.6
20260509184935 27 252 6.4 8.0 0.00 0.00 0.00 82 1012.6
20260509184433 27 226 6.4 12.9 0.00 0.00 0.00 83 1012.5
20260509183929 27 230 4.8 11.3 0.00 0.00 0.00 83 1012.7
20260509183423 27 229 1.6 9.7 0.00 0.00 0.00 83 1012.8
20260509182920 27 256 4.8 11.3 0.00 0.00 0.00 83 1012.8
20260509182417 27 258 4.8 9.7 0.00 0.00 0.00 81 1012.8
20260509181914 27 276 3.2 8.0 0.00 0.00 0.00 81 1012.8
20260509181412 27 232 3.2 8.0 0.00 0.00 0.00 80 1012.7
20260509180909 28 253 9.7 12.9 0.00 0.00 0.00 80 1012.9
20260509180404 27 246 1.6 9.7 0.00 0.00 0.00 81 1012.6
20260509175901 28 203 6.4 16.1 0.00 0.00 0.00 80 1012.8
20260509175357 28 254 4.8 8.0 0.00 0.00 0.00 79 1012.8
20260509174853 28 225 4.8 12.9 0.00 0.00 0.00 77 1013.0
20260509174349 28 245 9.7 11.3 0.00 0.00 0.00 77 1013.1
20260509173845 29 254 11.3 14.5 0.00 0.00 0.00 75 1012.9
20260509173340 28 179 6.4 12.9 0.00 0.00 0.00 75 1013.0
20260509172837 30 207 6.4 14.5 0.00 0.00 0.00 74 1013.2
20260509172334 30 230 9.7 14.5 0.00 0.00 0.00 73 1013.1
20260509171830 29 207 3.2 4.8 0.00 0.00 0.00 72 1013.0